When you browse on this site, cookies collect data to enhance your experience and personalize the content and advertising you see.
Visit our Privacy Policy to learn more. By continuing to use the site, you agree to this use of cookies and data.
  • In Portugal
  • List of Countries
  • For 7 days
  • Water Temperature
  • Satellite Maps
  • Weather Map
  • Weather Widgets
  • user-avatar
    Login

    Hourly Weather Lubumbashi

    Today, 23 May, Thursday

    Time Temperature Precipitation Wind Pressure Humidity
    00:00 +38°C° 0 mm 2 mps 718 mmHg 21%
    01:00 +37°C° 0 mm 2 mps 718 mmHg 18%
    02:00 +37°C° 0 mm 2 mps 718 mmHg 16%
    03:00 +36°C° 0 mm 2 mps 718 mmHg 13%
    04:00 +35°C° 0 mm 2 mps 718 mmHg 10%
    05:00 +35°C° 0 mm 3 mps 718 mmHg 7%
    06:00 +36°C° 0 mm 2 mps 718 mmHg 6%
    07:00 +37°C° 0 mm 2 mps 719 mmHg 4%
    08:00 +38°C° 0 mm 3 mps 720 mmHg 1%
    09:00 +39°C° 0 mm 3 mps 719 mmHg 3%
    10:00 +40°C° 0 mm 3 mps 719 mmHg 4%
    11:00 +42°C° 0 mm 3 mps 719 mmHg 5%
    12:00 +42°C° 0 mm 2 mps 719 mmHg 7%
    13:00 +43°C° 0 mm 2 mps 718 mmHg 8%
    14:00 +42°C° 0 mm 1 mps 718 mmHg 16%
    15:00 +42°C° 0 mm 1 mps 717 mmHg 16%
    16:00 +42°C° 0 mm 1 mps 717 mmHg 16%
    17:00 +42°C° 0 mm 1 mps 717 mmHg 15%
    18:00 +41°C° 0 mm 1 mps 717 mmHg 17%
    19:00 +40°C° 0 mm 1 mps 717 mmHg 18%
    20:00 +37°C° 0 mm 1 mps 717 mmHg 19%
    21:00 +37°C° 0 mm 1 mps 717 mmHg 19%
    22:00 +36°C° 0 mm 1 mps 717 mmHg 20%
    23:00 +36°C° 0 mm 1 mps 717 mmHg 20%

    Tomorrow, 24 May, Friday

    Time Temperature Precipitation Wind Pressure Humidity
    00:00 +35°C° 0 mm 1 mps 717 mmHg 19%
    01:00 +36°C° 0 mm 2 mps 717 mmHg 19%
    02:00 +36°C° 0 mm 2 mps 717 mmHg 19%
    03:00 +35°C° 0 mm 2 mps 717 mmHg 17%
    04:00 +33°C° 0 mm 1 mps 717 mmHg 16%
    05:00 +33°C° 0 mm 1 mps 717 mmHg 14%
    06:00 +34°C° 0 mm 1 mps 718 mmHg 16%
    07:00 +35°C° 0 mm 1 mps 719 mmHg 19%
    08:00 +36°C° 0 mm 1 mps 719 mmHg 21%
    09:00 +39°C° 0 mm 1 mps 719 mmHg 18%
    10:00 +40°C° 0 mm 1 mps 719 mmHg 15%
    11:00 +42°C° 0 mm 1 mps 719 mmHg 13%
    12:00 +42°C° 0 mm 1 mps 718 mmHg 11%
    13:00 +43°C° 0 mm 1 mps 718 mmHg 10%
    14:00 +44°C° 0 mm 1 mps 717 mmHg 9%
    15:00 +44°C° 0 mm 1 mps 717 mmHg 9%
    16:00 +44°C° 0 mm 1 mps 716 mmHg 9%
    17:00 +44°C° 0 mm 1 mps 716 mmHg 9%
    18:00 +42°C° 0 mm 1 mps 716 mmHg 10%
    19:00 +40°C° 0 mm 1 mps 716 mmHg 12%
    20:00 +39°C° 0 mm 1 mps 716 mmHg 14%
    21:00 +38°C° 0 mm 3 mps 717 mmHg 20%
    22:00 +39°C° 0 mm 5 mps 717 mmHg 27%
    23:00 +39°C° 0 mm 7 mps 718 mmHg 33%

    Day after tomorrow, 25 May, Saturday

    Time Temperature Precipitation Wind Pressure Humidity
    00:00 +38°C° 0 mm 7 mps 717 mmHg 36%
    01:00 +36°C° 0 mm 6 mps 717 mmHg 38%
    02:00 +36°C° 0 mm 6 mps 717 mmHg 41%
    03:00 +35°C° 0 mm 6 mps 717 mmHg 44%
    04:00 +34°C° 0 mm 5 mps 717 mmHg 47%
    05:00 +33°C° 0 mm 5 mps 717 mmHg 50%
    06:00 +34°C° 0 mm 5 mps 718 mmHg 49%
    07:00 +34°C° 0 mm 5 mps 719 mmHg 47%
    08:00 +35°C° 0 mm 5 mps 720 mmHg 46%
    09:00 +36°C° 0 mm 5 mps 720 mmHg 41%
    10:00 +39°C° 0 mm 6 mps 720 mmHg 37%
    11:00 +40°C° 0 mm 6 mps 720 mmHg 33%
    12:00 +41°C° 0 mm 5 mps 719 mmHg 29%
    13:00 +42°C° 0 mm 4 mps 718 mmHg 25%
    14:00 +43°C° 0 mm 3 mps 718 mmHg 22%
    15:00 +43°C° 0 mm 3 mps 717 mmHg 21%
    16:00 +43°C° 0 mm 3 mps 717 mmHg 20%
    17:00 +43°C° 0 mm 3 mps 716 mmHg 20%
    18:00 +42°C° 0 mm 3 mps 717 mmHg 21%
    19:00 +42°C° 0 mm 3 mps 717 mmHg 22%
    20:00 +40°C° 0 mm 3 mps 717 mmHg 23%
    21:00 +40°C° 0 mm 4 mps 718 mmHg 24%
    22:00 +40°C° 0 mm 4 mps 718 mmHg 26%
    23:00 +39°C° 0 mm 5 mps 718 mmHg 27%

    26 May, Sunday

    Time Temperature Precipitation Wind Pressure Humidity
    00:00 +37°C° 0 mm 4 mps 718 mmHg 30%
    01:00 +36°C° 0 mm 4 mps 717 mmHg 32%
    02:00 +35°C° 0 mm 3 mps 716 mmHg 34%
    03:00 +35°C° 0 mm 4 mps 716 mmHg 36%
    04:00 +34°C° 0 mm 4 mps 717 mmHg 38%
    05:00 +34°C° 0 mm 5 mps 717 mmHg 40%
    06:00 +35°C° 0 mm 6 mps 717 mmHg 38%
    07:00 +36°C° 0 mm 6 mps 718 mmHg 37%
    08:00 +36°C° 0 mm 7 mps 718 mmHg 35%
    09:00 +39°C° 0 mm 6 mps 718 mmHg 31%
    10:00 +41°C° 0 mm 6 mps 718 mmHg 28%
    11:00 +43°C° 0 mm 5 mps 719 mmHg 24%
    12:00 +43°C° 0 mm 4 mps 718 mmHg 22%
    13:00 +44°C° 0 mm 3 mps 717 mmHg 19%
    14:00 +43°C° 0 mm 2 mps 716 mmHg 17%
    15:00 +43°C° 0 mm 2 mps 716 mmHg 18%
    16:00 +43°C° 0 mm 2 mps 715 mmHg 18%
    17:00 +42°C° 0 mm 2 mps 715 mmHg 19%
    18:00 +41°C° 0 mm 2 mps 715 mmHg 20%
    19:00 +42°C° 0 mm 3 mps 715 mmHg 21%
    20:00 +40°C° 0 mm 3 mps 716 mmHg 22%
    21:00 +40°C° 0.1 mm 3 mps 716 mmHg 23%
    22:00 +39°C° 0.1 mm 3 mps 717 mmHg 23%
    23:00 +39°C° 0.1 mm 3 mps 717 mmHg 24%

    27 May, Monday

    Time Temperature Precipitation Wind Pressure Humidity
    00:00 +38°C° 0 mm 3 mps 717 mmHg 25%
    01:00 +38°C° 0 mm 4 mps 716 mmHg 26%
    02:00 +37°C° 0 mm 4 mps 716 mmHg 28%
    03:00 +36°C° 0 mm 5 mps 716 mmHg 31%
    04:00 +36°C° 0 mm 6 mps 716 mmHg 35%
    05:00 +35°C° 0 mm 6 mps 716 mmHg 38%
    06:00 +36°C° 0 mm 6 mps 717 mmHg 37%
    07:00 +36°C° 0 mm 6 mps 718 mmHg 36%
    08:00 +38°C° 0 mm 6 mps 718 mmHg 34%
    09:00 +40°C° 0 mm 6 mps 718 mmHg 31%
    10:00 +41°C° 0 mm 6 mps 718 mmHg 28%
    11:00 +42°C° 0 mm 6 mps 719 mmHg 25%
    12:00 +43°C° 0.1 mm 5 mps 718 mmHg 25%
    13:00 +43°C° 0.1 mm 5 mps 717 mmHg 24%
    14:00 +43°C° 0.1 mm 5 mps 716 mmHg 24%
    15:00 +43°C° 0.3 mm 4 mps 716 mmHg 24%
    16:00 +42°C° 0.3 mm 3 mps 716 mmHg 25%
    17:00 +41°C° 0.3 mm 2 mps 715 mmHg 25%
    18:00 +40°C° 0 mm 2 mps 716 mmHg 26%
    19:00 +39°C° 0 mm 2 mps 716 mmHg 27%
    20:00 +39°C° 0 mm 2 mps 716 mmHg 28%
    21:00 +38°C° 0.3 mm 3 mps 717 mmHg 30%
    22:00 +37°C° 0.3 mm 4 mps 717 mmHg 32%
    23:00 +36°C° 0.3 mm 6 mps 717 mmHg 33%

    28 May, Tuesday

    Time Temperature Precipitation Wind Pressure Humidity
    00:00 +36°C° 0 mm 5 mps 717 mmHg 34%
    01:00 +36°C° 0 mm 4 mps 717 mmHg 35%
    02:00 +35°C° 0 mm 4 mps 716 mmHg 36%
    03:00 +35°C° 0.1 mm 3 mps 717 mmHg 37%
    04:00 +35°C° 0.1 mm 3 mps 717 mmHg 38%
    05:00 +35°C° 0.1 mm 2 mps 718 mmHg 39%
    06:00 +34°C° 1 mm 4 mps 718 mmHg 42%
    07:00 +34°C° 1 mm 5 mps 719 mmHg 45%
    08:00 +34°C° 1 mm 7 mps 720 mmHg 48%
    09:00 +34°C° 0 mm 7 mps 720 mmHg 47%
    10:00 +35°C° 0 mm 6 mps 719 mmHg 45%
    11:00 +36°C° 0 mm 6 mps 719 mmHg 43%
    12:00 +37°C° 0 mm 5 mps 718 mmHg 39%
    13:00 +38°C° 0 mm 4 mps 717 mmHg 34%
    14:00 +39°C° 0 mm 3 mps 717 mmHg 30%
    15:00 +39°C° 0 mm 3 mps 716 mmHg 29%
    16:00 +39°C° 0 mm 3 mps 716 mmHg 28%
    17:00 +40°C° 0 mm 3 mps 716 mmHg 27%
    18:00 +39°C° 0.1 mm 3 mps 716 mmHg 28%
    19:00 +39°C° 0.1 mm 3 mps 716 mmHg 28%
    20:00 +38°C° 0.1 mm 3 mps 716 mmHg 29%
    21:00 +37°C° 0 mm 4 mps 717 mmHg 35%
    22:00 +36°C° 0 mm 5 mps 717 mmHg 40%
    23:00 +34°C° 0 mm 7 mps 717 mmHg 45%
    Show more